COSMOS 2291 1 23267U 94060A 21063.61715060 -.00000135 00000-0 00000-0 0 9997 2 23267 14.7140 4.7786 0002653 107.0366 260.1387 1.00265116 96846 SL-12 R/B(2) 1 23270U 94060D 21063.82829966 -.00000130 00000-0 00000-0 0 9990 2 23270 14.7820 5.1717 0010885 70.4176 106.7759 1.00053323 96238